Location: Bois Neuf
(42.7667°N, 0.6333°E)
Time: 04:45:45
(UTC+00:00)

Cosmos 2322 Rocket - Pass Details

Date: 07 June 2020
Orbit: 833 x 850 km, 71.0° (Epoch: 10 July)

Event Time Altitude Azimuth Distance (km) Brightness Sun altitude
Exits shadow 03:11:15 11° 247° (WSW) 2,354 3.9 -10.6°
Maximum altitude 03:15:48 29° 306° (NW) 1,480 3.4 -10.0°
Drops below altitude 10° 03:20:40 10° 6° (N) 2,452 5.4 -9.3°
Sets 03:23:27 0° 17° (NNE) 3,389 6.5 -9.0°
